Погода в Тхайнгуене

Вьетнам     21°35′42″N   105°50′06″E
темп.,
°C
ветер,
м/с
пор.,
м/с
влажн.,
%
обл.,
%
осадки,
мм/ч
давл.,
гПа
погр.,
м
17 апреля, сб
сб1701:00+23вюв1190100 0.1 101357
04:00+23св2294100 0.3 101266
07:00+22св1294100 2.4 1015124
10:00+21ссв2392100 5.0 1017262
13:00+21с2391100 8.3 1014291
16:00+21с2489100 0.0 1013278
19:00+21с238999 0.0 1015127
22:00+21с128899 0.0 101659
18 апреля, вс
вс1801:00+21с1189100 0.0 101441
04:00+20ссв1293100 0.5 101390
07:00+20ссв1191100 0.7 101480
10:00+20с119183 0.3 1015175
13:00+25в127477 0.4 1011820
16:00+24сз117995 0.2 1009344
19:00+22ссз2388100 0.3 1010115
22:00+22с0089100 0.3 101245
19 апреля, пн
пн1901:00+22юв1393100 0.8 1010168
04:00+22юв1296100 0.4 1010176
07:00+22юв129686 1.0 1011123
10:00+24ююв238676 1.9 1012433
13:00+25юв238348 2.8 1009559
16:00+28ююв236956 0.8 1006985
19:00+24юв369134 1.8 1008181
22:00+23ююв3795100 0.4 1010418
20 апреля, вт
вт2001:00+22ююв2695100 0.8 1009350
04:00+22ююв2595100 0.5 1009380
07:00+22юв2593100 0.6 1010317
10:00+23ююв2391100 0.4 1011301
13:00+28ююв347292 1.6 10081056
16:00+28ююв457549 1.8 1006788
19:00+24ююв488982 2.1 1008365
22:00+23юв399691 0.8 1010556
21 апреля, ср
ср2101:00+23юв399698 1.3 1009529
04:00+22юв2697100 0.9 1009317
07:00+22вюв2496100 1.6 1010257
10:00+25юв248980 0.1 1011475
13:00+29ююв457072 1.8 10071098
16:00+28юв567649 1.4 1005609
19:00+25юв489017 2.1 1008387
22:00+24юв379649 0.1 1010395